| time (UTC) | temp C | wind direction | speed KPH | gust KPH | rain 1hr cm | rain 24hr cm | rain mn cm | humidity % | barometer mb |
| 20260505200002 | 19 | 180 | 11.3 | 11.3 | 0.00 | 0.00 | 0.00 | 58 | 1006.6 |
| 20260505195502 | 19 | 180 | 11.3 | 11.3 | 0.00 | 0.00 | 0.00 | 58 | 1006.6 |
| 20260505195002 | 19 | 180 | 11.3 | 11.3 | 0.00 | 0.00 | 0.00 | 58 | 1006.6 |
| 20260505194502 | 19 | 180 | 11.3 | 11.3 | 0.00 | 0.00 | 0.00 | 58 | 1006.6 |
| 20260505194002 | 19 | 180 | 11.3 | 11.3 | 0.00 | 0.00 | 0.00 | 58 | 1006.6 |
| 20260505193002 | 19 | 180 | 11.3 | 11.3 | 0.00 | 0.00 | 0.00 | 58 | 1006.6 |
| 20260505192002 | 19 | 180 | 11.3 | 11.3 | 0.00 | 0.00 | 0.00 | 58 | 1006.6 |
| 20260505191002 | 19 | 180 | 11.3 | 11.3 | 0.00 | 0.00 | 0.00 | 58 | 1006.6 |
| 20260505190501 | 19 | 180 | 11.3 | 11.3 | 0.00 | 0.00 | 0.00 | 58 | 1006.6 |
| 20260505190002 | 19 | 180 | 11.3 | 11.3 | 0.00 | 0.00 | 0.00 | 58 | 1006.6 |
| 20260505185502 | 19 | 180 | 11.3 | 11.3 | 0.00 | 0.00 | 0.00 | 58 | 1006.6 |
| 20260505185002 | 19 | 180 | 11.3 | 11.3 | 0.00 | 0.00 | 0.00 | 58 | 1006.6 |
| 20260505184002 | 19 | 180 | 11.3 | 11.3 | 0.00 | 0.00 | 0.00 | 58 | 1006.6 |
| 20260505183502 | 19 | 180 | 11.3 | 11.3 | 0.00 | 0.00 | 0.00 | 58 | 1006.6 |
| 20260505182502 | 19 | 180 | 11.3 | 11.3 | 0.00 | 0.00 | 0.00 | 58 | 1006.6 |
| 20260505181502 | 19 | 180 | 11.3 | 11.3 | 0.00 | 0.00 | 0.00 | 58 | 1006.6 |
| 20260505181002 | 19 | 180 | 11.3 | 11.3 | 0.00 | 0.00 | 0.00 | 58 | 1006.6 |
| 20260505180502 | 19 | 180 | 11.3 | 11.3 | 0.00 | 0.00 | 0.00 | 58 | 1006.6 |
| 20260505175502 | 19 | 180 | 11.3 | 11.3 | 0.00 | 0.00 | 0.00 | 58 | 1006.6 |
| 20260505175002 | 19 | 180 | 11.3 | 11.3 | 0.00 | 0.00 | 0.00 | 58 | 1006.6 |
| 20260505174502 | 19 | 180 | 11.3 | 11.3 | 0.00 | 0.00 | 0.00 | 58 | 1006.6 |
| 20260505174002 | 19 | 180 | 11.3 | 11.3 | 0.00 | 0.00 | 0.00 | 58 | 1006.6 |
| 20260505173502 | 19 | 180 | 11.3 | 11.3 | 0.00 | 0.00 | 0.00 | 58 | 1006.6 |
| 20260505173003 | 19 | 180 | 11.3 | 11.3 | 0.00 | 0.03 | 0.00 | 58 | 1006.6 |
| 20260505172502 | 19 | 180 | 11.3 | 11.3 | 0.00 | 0.03 | 0.00 | 58 | 1006.6 |
| 20260505172002 | 19 | 180 | 11.3 | 11.3 | 0.00 | 0.03 | 0.00 | 58 | 1006.6 |
| 20260505171502 | 19 | 180 | 11.3 | 11.3 | 0.00 | 0.03 | 0.00 | 58 | 1006.6 |
| 20260505171002 | 19 | 180 | 11.3 | 11.3 | 0.00 | 0.03 | 0.00 | 58 | 1006.6 |
| 20260505170502 | 19 | 180 | 11.3 | 11.3 | 0.00 | 0.03 | 0.00 | 58 | 1006.6 |
| 20260505170003 | 19 | 180 | 11.3 | 11.3 | 0.00 | 0.03 | 0.00 | 58 | 1006.6 |
| 20260505165502 | 19 | 180 | 11.3 | 11.3 | 0.00 | 0.03 | 0.00 | 58 | 1006.6 |
| 20260505165002 | 19 | 180 | 11.3 | 11.3 | 0.00 | 0.03 | 0.00 | 58 | 1006.6 |
| 20260505164502 | 19 | 180 | 11.3 | 11.3 | 0.00 | 0.03 | 0.00 | 58 | 1006.6 |
| 20260505163502 | 19 | 180 | 11.3 | 11.3 | 0.00 | 0.03 | 0.00 | 58 | 1006.6 |
| 20260505163002 | 19 | 180 | 11.3 | 11.3 | 0.00 | 0.03 | 0.00 | 58 | 1006.6 |
| 20260505162502 | 19 | 180 | 11.3 | 11.3 | 0.00 | 0.03 | 0.00 | 58 | 1006.6 |
| 20260505162002 | 19 | 180 | 11.3 | 11.3 | 0.00 | 0.03 | 0.00 | 58 | 1006.6 |
| 20260505161002 | 19 | 180 | 11.3 | 11.3 | 0.00 | 0.03 | 0.00 | 58 | 1006.6 |
| 20260505160503 | 19 | 180 | 11.3 | 11.3 | 0.00 | 0.03 | 0.00 | 58 | 1006.6 |
| 20260505152503 | 19 | 180 | 11.3 | 11.3 | 0.00 | 0.03 | 0.00 | 58 | 1006.6 |
| 20260505152002 | 19 | 180 | 11.3 | 11.3 | 0.00 | 0.03 | 0.00 | 58 | 1006.6 |
| 20260505151502 | 19 | 180 | 11.3 | 11.3 | 0.00 | 0.03 | 0.00 | 58 | 1006.6 |
| 20260505140503 | 19 | 219 | 8.0 | 16.1 | 0.00 | 0.03 | 0.00 | 58 | 1006.6 |
| 20260505125002 | 16 | 294 | 4.8 | 8.0 | 0.00 | 0.03 | 0.00 | 64 | 1006.8 |
| 20260505124503 | 17 | 190 | 3.2 | 12.9 | 0.00 | 0.03 | 0.00 | 64 | 1006.8 |
| 20260505124002 | 17 | 77 | 4.8 | 11.3 | 0.00 | 0.03 | 0.00 | 64 | 1006.8 |
| 20260505123502 | 16 | 68 | 3.2 | 9.7 | 0.00 | 0.03 | 0.00 | 64 | 1006.7 |
| 20260505123003 | 16 | 215 | 4.8 | 8.0 | 0.00 | 0.03 | 0.00 | 66 | 1006.7 |
| 20260505122502 | 15 | 254 | 3.2 | 9.7 | 0.00 | 0.03 | 0.00 | 67 | 1006.9 |
| 20260505122003 | 15 | 284 | 6.4 | 9.7 | 0.00 | 0.03 | 0.00 | 68 | 1006.9 |
| 20260505121503 | 15 | 324 | 3.2 | 4.8 | 0.00 | 0.03 | 0.00 | 68 | 1006.9 |
| 20260505121002 | 15 | 238 | 6.4 | 9.7 | 0.00 | 0.03 | 0.00 | 67 | 1007.1 |
| 20260505120502 | 15 | 260 | 4.8 | 8.0 | 0.00 | 0.03 | 0.00 | 67 | 1007.1 |
| 20260505115503 | 15 | 169 | 8.0 | 9.7 | 0.00 | 0.03 | 0.00 | 69 | 1007.0 |
| 20260505115002 | 14 | 255 | 6.4 | 9.7 | 0.00 | 0.03 | 0.00 | 70 | 1007.1 |
| 20260505114003 | 13 | 176 | 4.8 | 9.7 | 0.00 | 0.03 | 0.00 | 72 | 1007.1 |
| 20260505113503 | 13 | 119 | 3.2 | 8.0 | 0.00 | 0.03 | 0.00 | 73 | 1007.1 |
| 20260505113003 | 13 | 313 | 4.8 | 8.0 | 0.00 | 0.03 | 0.00 | 74 | 1007.1 |
| 20260505112503 | 13 | 171 | 4.8 | 8.0 | 0.00 | 0.03 | 0.00 | 74 | 1007.2 |
| 20260505112003 | 12 | 122 | 4.8 | 11.3 | 0.00 | 0.03 | 0.00 | 74 | 1007.2 |
| 20260505111503 | 12 | 206 | 3.2 | 8.0 | 0.00 | 0.03 | 0.00 | 76 | 1007.2 |
| 20260505111003 | 11 | 252 | 1.6 | 9.7 | 0.00 | 0.03 | 0.00 | 77 | 1007.1 |
| 20260505110503 | 11 | 213 | 3.2 | 4.8 | 0.00 | 0.03 | 0.00 | 79 | 1007.1 |
| 20260505102002 | 10 | 158 | 1.6 | 4.8 | 0.00 | 0.03 | 0.00 | 81 | 1007.0 |
| 20260505101503 | 10 | 184 | 3.2 | 4.8 | 0.00 | 0.03 | 0.00 | 81 | 1007.0 |
| 20260505101002 | 9 | 204 | 1.6 | 8.0 | 0.00 | 0.03 | 0.00 | 82 | 1007.0 |
| 20260505100503 | 8 | 207 | 1.6 | 4.8 | 0.00 | 0.03 | 0.00 | 82 | 1007.0 |
| 20260505100002 | 9 | 236 | 0.0 | 1.6 | 0.00 | 0.03 | 0.00 | 82 | 1006.9 |
| 20260505095503 | 8 | 180 | 0.0 | 0.0 | 0.00 | 0.03 | 0.00 | 82 | 1006.9 |
| 20260505095002 | 8 | 191 | 0.0 | 3.2 | 0.00 | 0.03 | 0.00 | 82 | 1006.9 |
| 20260505094503 | 8 | 189 | 0.0 | 3.2 | 0.00 | 0.03 | 0.00 | 82 | 1006.9 |
| 20260505094002 | 8 | 186 | 0.0 | 0.0 | 0.00 | 0.03 | 0.00 | 82 | 1006.9 |
| 20260505093503 | 8 | 135 | 0.0 | 3.2 | 0.00 | 0.03 | 0.00 | 82 | 1006.9 |
| 20260505093003 | 8 | 202 | 1.6 | 3.2 | 0.00 | 0.03 | 0.00 | 82 | 1006.9 |
| 20260505092502 | 9 | 180 | 3.2 | 4.8 | 0.00 | 0.03 | 0.00 | 82 | 1006.9 |
| 20260505090503 | 10 | 167 | 3.2 | 3.2 | 0.00 | 0.03 | 0.00 | 80 | 1007.1 |
| 20260505090002 | 10 | 144 | 1.6 | 3.2 | 0.00 | 0.03 | 0.00 | 79 | 1007.1 |
| 20260505085503 | 10 | 170 | 3.2 | 4.8 | 0.00 | 0.03 | 0.00 | 79 | 1007.1 |
| 20260505085003 | 10 | 189 | 1.6 | 3.2 | 0.00 | 0.03 | 0.00 | 79 | 1007.1 |
| 20260505084503 | 10 | 190 | 1.6 | 4.8 | 0.00 | 0.03 | 0.00 | 79 | 1007.1 |
| 20260505084003 | 10 | 176 | 3.2 | 4.8 | 0.00 | 0.03 | 0.00 | 79 | 1007.1 |
| 20260505083503 | 10 | 197 | 3.2 | 3.2 | 0.00 | 0.03 | 0.00 | 79 | 1007.1 |
| 20260505083004 | 10 | 180 | 3.2 | 3.2 | 0.00 | 0.03 | 0.00 | 79 | 1007.1 |
| 20260505082503 | 10 | 180 | 3.2 | 3.2 | 0.00 | 0.03 | 0.00 | 79 | 1006.9 |
| 20260505082002 | 10 | 189 | 3.2 | 3.2 | 0.00 | 0.03 | 0.00 | 79 | 1006.9 |
| 20260505081503 | 10 | 193 | 3.2 | 3.2 | 0.00 | 0.03 | 0.00 | 79 | 1006.9 |
| 20260505080503 | 10 | 193 | 3.2 | 3.2 | 0.00 | 0.03 | 0.00 | 78 | 1007.1 |
| 20260505080003 | 10 | 171 | 3.2 | 3.2 | 0.00 | 0.03 | 0.00 | 78 | 1007.0 |
| 20260505075503 | 10 | 180 | 3.2 | 3.2 | 0.00 | 0.03 | 0.00 | 77 | 1007.0 |
| 20260505075002 | 10 | 195 | 3.2 | 3.2 | 0.00 | 0.03 | 0.00 | 77 | 1007.1 |
| 20260505074503 | 10 | 195 | 1.6 | 3.2 | 0.00 | 0.03 | 0.00 | 77 | 1007.1 |
| 20260505074003 | 10 | 229 | 3.2 | 3.2 | 0.00 | 0.03 | 0.00 | 76 | 1007.1 |
| 20260505073503 | 10 | 187 | 3.2 | 3.2 | 0.00 | 0.03 | 0.00 | 76 | 1007.1 |
| 20260505073003 | 10 | 214 | 3.2 | 3.2 | 0.00 | 0.03 | 0.00 | 76 | 1007.1 |
| 20260505072503 | 10 | 222 | 3.2 | 4.8 | 0.00 | 0.03 | 0.00 | 76 | 1007.2 |
| 20260505072003 | 10 | 195 | 3.2 | 4.8 | 0.00 | 0.03 | 0.00 | 76 | 1007.2 |
| 20260505071503 | 10 | 202 | 3.2 | 3.2 | 0.00 | 0.03 | 0.00 | 76 | 1007.2 |
| 20260505071003 | 10 | 211 | 3.2 | 3.2 | 0.00 | 0.03 | 0.00 | 76 | 1007.1 |
| 20260505070002 | 10 | 212 | 3.2 | 3.2 | 0.00 | 0.03 | 0.00 | 75 | 1007.1 |
| 20260505065503 | 11 | 248 | 0.0 | 1.6 | 0.00 | 0.03 | 0.00 | 74 | 1007.1 |
| 20260505064003 | 11 | 216 | 3.2 | 3.2 | 0.00 | 0.03 | 0.00 | 74 | 1007.1 |
| 20260505063503 | 11 | 198 | 3.2 | 4.8 | 0.00 | 0.03 | 0.00 | 74 | 1007.0 |
| 20260505063003 | 11 | 180 | 3.2 | 3.2 | 0.00 | 0.03 | 0.00 | 74 | 1007.0 |
| 20260505062503 | 11 | 192 | 3.2 | 3.2 | 0.00 | 0.03 | 0.00 | 74 | 1007.0 |
| 20260505062003 | 11 | 186 | 3.2 | 4.8 | 0.00 | 0.03 | 0.00 | 74 | 1007.0 |
| 20260505061502 | 11 | 251 | 3.2 | 4.8 | 0.00 | 0.03 | 0.00 | 74 | 1007.0 |
| 20260505061003 | 11 | 196 | 3.2 | 4.8 | 0.00 | 0.03 | 0.00 | 74 | 1007.0 |
| 20260505055503 | 11 | 195 | 3.2 | 4.8 | 0.00 | 0.03 | 0.00 | 75 | 1007.0 |
| 20260505055004 | 11 | 230 | 4.8 | 9.7 | 0.00 | 0.03 | 0.00 | 76 | 1007.0 |
| 20260505054504 | 10 | 228 | 3.2 | 4.8 | 0.00 | 0.03 | 0.00 | 77 | 1007.1 |
| 20260505054003 | 10 | 202 | 1.6 | 3.2 | 0.00 | 0.03 | 0.00 | 77 | 1007.1 |
| 20260505053504 | 10 | 233 | 0.0 | 0.0 | 0.00 | 0.03 | 0.00 | 78 | 1007.0 |
| 20260505053003 | 10 | 218 | 0.0 | 0.0 | 0.00 | 0.03 | 0.00 | 78 | 1007.0 |
| 20260505052503 | 10 | 208 | 0.0 | 0.0 | 0.00 | 0.03 | 0.00 | 78 | 1006.8 |
| 20260505052003 | 10 | 191 | 0.0 | 0.0 | 0.00 | 0.03 | 0.00 | 79 | 1006.8 |
| 20260505051503 | 10 | 341 | 0.0 | 0.0 | 0.00 | 0.03 | 0.00 | 79 | 1006.7 |
| 20260505051003 | 10 | 180 | 0.0 | 0.0 | 0.00 | 0.03 | 0.00 | 79 | 1006.6 |
| 20260505050503 | 10 | 132 | 0.0 | 3.2 | 0.00 | 0.03 | 0.00 | 80 | 1006.6 |
| 20260505041504 | 10 | 244 | 0.0 | 3.2 | 0.00 | 0.03 | 0.00 | 80 | 1006.5 |
| 20260505040504 | 10 | 345 | 1.6 | 4.8 | 0.00 | 0.03 | 0.00 | 80 | 1006.5 |
| 20260505040004 | 10 | 228 | 3.2 | 3.2 | 0.00 | 0.03 | 0.00 | 79 | 1006.4 |
| 20260505035503 | 10 | 235 | 3.2 | 4.8 | 0.00 | 0.03 | 0.03 | 79 | 1006.4 |
| 20260505035003 | 10 | 204 | 0.0 | 0.0 | 0.00 | 0.03 | 0.03 | 79 | 1006.2 |
| 20260505034503 | 10 | 225 | 0.0 | 1.6 | 0.00 | 0.03 | 0.03 | 79 | 1006.2 |
| 20260505033003 | 10 | 156 | 3.2 | 3.2 | 0.00 | 0.03 | 0.03 | 78 | 1006.3 |
| 20260505032503 | 10 | 202 | 3.2 | 3.2 | 0.00 | 0.03 | 0.03 | 78 | 1006.3 |
| 20260505032003 | 10 | 238 | 3.2 | 4.8 | 0.00 | 0.03 | 0.03 | 77 | 1006.3 |
| 20260505031504 | 10 | 222 | 3.2 | 3.2 | 0.00 | 0.03 | 0.03 | 77 | 1006.3 |
| 20260505031003 | 10 | 202 | 3.2 | 3.2 | 0.00 | 0.03 | 0.03 | 77 | 1006.2 |
| 20260505030504 | 10 | 235 | 0.0 | 3.2 | 0.00 | 0.03 | 0.03 | 76 | 1006.2 |
| 20260505030003 | 10 | 212 | 1.6 | 8.0 | 0.00 | 0.03 | 0.03 | 76 | 1006.2 |
| 20260505025003 | 11 | 202 | 1.6 | 4.8 | 0.00 | 0.03 | 0.03 | 75 | 1006.2 |
| 20260505024504 | 11 | 202 | 3.2 | 8.0 | 0.00 | 0.03 | 0.03 | 75 | 1006.2 |
| 20260505024004 | 11 | 195 | 3.2 | 4.8 | 0.00 | 0.03 | 0.03 | 75 | 1006.2 |
| 20260505023003 | 11 | 189 | 4.8 | 9.7 | 0.00 | 0.03 | 0.03 | 74 | 1006.3 |
| 20260505022503 | 11 | 183 | 3.2 | 4.8 | 0.00 | 0.03 | 0.03 | 73 | 1006.2 |
| 20260505022003 | 12 | 181 | 3.2 | 8.0 | 0.00 | 0.03 | 0.03 | 73 | 1006.2 |
| 20260505021504 | 12 | 190 | 3.2 | 4.8 | 0.00 | 0.03 | 0.03 | 72 | 1006.2 |
| 20260505021003 | 12 | 180 | 3.2 | 8.0 | 0.00 | 0.03 | 0.03 | 72 | 1006.1 |
| 20260505020003 | 12 | 144 | 3.2 | 4.8 | 0.00 | 0.03 | 0.03 | 71 | 1006.2 |
| 20260505015504 | 12 | 170 | 3.2 | 8.0 | 0.00 | 0.03 | 0.03 | 70 | 1006.2 |
| 20260505015004 | 12 | 166 | 4.8 | 9.7 | 0.00 | 0.03 | 0.03 | 70 | 1006.1 |
| 20260505014501 | 12 | 167 | 3.2 | 3.2 | 0.00 | 0.03 | 0.03 | 70 | 1006.1 |
| 20260505014002 | 12 | 130 | 3.2 | 4.8 | 0.00 | 0.03 | 0.03 | 70 | 1006.1 |
| 20260505013501 | 13 | 155 | 1.6 | 4.8 | 0.00 | 0.03 | 0.03 | 70 | 1006.0 |
| 20260505013002 | 13 | 166 | 0.0 | 3.2 | 0.00 | 0.03 | 0.03 | 69 | 1006.0 |
| 20260505012502 | 13 | 101 | 1.6 | 4.8 | 0.00 | 0.03 | 0.03 | 69 | 1005.8 |
| 20260505012001 | 13 | 211 | 3.2 | 4.8 | 0.00 | 0.03 | 0.03 | 69 | 1005.8 |
| 20260505010501 | 13 | 137 | 3.2 | 8.0 | 0.00 | 0.03 | 0.03 | 68 | 1005.9 |
| 20260505010001 | 13 | 140 | 1.6 | 4.8 | 0.00 | 0.03 | 0.03 | 68 | 1005.9 |
| 20260505005501 | 13 | 163 | 1.6 | 4.8 | 0.00 | 0.03 | 0.03 | 68 | 1005.9 |
| 20260505005002 | 13 | 180 | 3.2 | 4.8 | 0.00 | 0.03 | 0.03 | 68 | 1005.5 |
| 20260505004501 | 13 | 246 | 4.8 | 8.0 | 0.00 | 0.03 | 0.03 | 68 | 1005.5 |
| 20260505004001 | 13 | 213 | 3.2 | 3.2 | 0.00 | 0.03 | 0.03 | 67 | 1005.5 |
| 20260505003502 | 14 | 218 | 0.0 | 3.2 | 0.00 | 0.03 | 0.03 | 65 | 1005.4 |
| 20260505003001 | 14 | 191 | 3.2 | 3.2 | 0.00 | 0.03 | 0.03 | 65 | 1005.4 |
| 20260505002501 | 14 | 145 | 3.2 | 8.0 | 0.00 | 0.03 | 0.03 | 64 | 1005.1 |
| 20260505002002 | 15 | 168 | 3.2 | 8.0 | 0.00 | 0.03 | 0.03 | 63 | 1005.1 |
| 20260505001501 | 15 | 179 | 1.6 | 4.8 | 0.00 | 0.03 | 0.03 | 63 | 1005.1 |
| 20260505001001 | 15 | 170 | 1.6 | 3.2 | 0.00 | 0.03 | 0.03 | 61 | 1005.0 |
| 20260505000502 | 15 | 225 | 1.6 | 3.2 | 0.00 | 0.03 | 0.03 | 60 | 1005.0 |
| 20260505000002 | 15 | 258 | 3.2 | 3.2 | 0.00 | 0.03 | 0.03 | 58 | 1005.0 |
| 20260504235502 | 15 | 192 | 1.6 | 3.2 | 0.00 | 0.03 | 0.03 | 57 | 1005.0 |
| 20260504235001 | 15 | 180 | 1.6 | 3.2 | 0.00 | 0.03 | 0.03 | 57 | 1004.8 |
| 20260504234502 | 16 | 180 | 0.0 | 1.6 | 0.00 | 0.03 | 0.03 | 56 | 1004.8 |
| 20260504234002 | 16 | 158 | 1.6 | 3.2 | 0.00 | 0.03 | 0.03 | 57 | 1004.8 |
| 20260504233501 | 16 | 180 | 1.6 | 3.2 | 0.00 | 0.03 | 0.03 | 57 | 1004.6 |
| 20260504232001 | 17 | 180 | 0.0 | 0.0 | 0.00 | 0.03 | 0.03 | 55 | 1004.6 |
| 20260504231502 | 17 | 180 | 0.0 | 0.0 | 0.00 | 0.03 | 0.03 | 54 | 1004.6 |
| 20260504230502 | 17 | 180 | 0.0 | 0.0 | 0.00 | 0.03 | 0.03 | 55 | 1004.4 |
| 20260504225501 | 17 | 180 | 0.0 | 0.0 | 0.00 | 0.03 | 0.03 | 54 | 1004.3 |
| 20260504225002 | 17 | 195 | 0.0 | 1.6 | 0.00 | 0.03 | 0.03 | 53 | 1004.4 |
| 20260504224502 | 17 | 204 | 1.6 | 4.8 | 0.00 | 0.03 | 0.03 | 53 | 1004.4 |
| 20260504224001 | 17 | 253 | 0.0 | 8.0 | 0.00 | 0.03 | 0.03 | 52 | 1004.4 |
| 20260504223501 | 18 | 50 | 0.0 | 1.6 | 0.00 | 0.03 | 0.03 | 53 | 1004.4 |
| 20260504223002 | 18 | 292 | 0.0 | 3.2 | 0.00 | 0.03 | 0.03 | 54 | 1004.4 |
| 20260504222501 | 18 | 346 | 3.2 | 4.8 | 0.00 | 0.03 | 0.03 | 52 | 1004.3 |
| 20260504222002 | 18 | 162 | 1.6 | 1.6 | 0.00 | 0.03 | 0.03 | 52 | 1004.3 |
| 20260504221501 | 18 | 274 | 1.6 | 3.2 | 0.00 | 0.03 | 0.03 | 51 | 1004.3 |
| 20260504221001 | 18 | 237 | 0.0 | 1.6 | 0.00 | 0.03 | 0.03 | 52 | 1004.4 |
| 20260504220502 | 18 | 183 | 4.8 | 4.8 | 0.00 | 0.03 | 0.03 | 51 | 1004.4 |
| 20260504220002 | 18 | 252 | 1.6 | 3.2 | 0.00 | 0.03 | 0.03 | 52 | 1004.4 |
| 20260504215501 | 17 | 261 | 1.6 | 4.8 | 0.00 | 0.03 | 0.03 | 55 | 1004.4 |
| 20260504215001 | 17 | 217 | 3.2 | 8.0 | 0.00 | 0.03 | 0.03 | 54 | 1004.5 |
| 20260504214002 | 17 | 268 | 4.8 | 12.9 | 0.00 | 0.03 | 0.03 | 52 | 1004.5 |
| 20260504213001 | 18 | 270 | 8.0 | 14.5 | 0.00 | 0.03 | 0.03 | 51 | 1004.5 |
| 20260504212502 | 17 | 273 | 3.2 | 12.9 | 0.00 | 0.03 | 0.03 | 53 | 1004.3 |
| 20260504212002 | 17 | 293 | 8.0 | 14.5 | 0.00 | 0.03 | 0.03 | 51 | 1004.3 |
| 20260504211002 | 18 | 329 | 8.0 | 19.3 | 0.00 | 0.03 | 0.03 | 51 | 1004.1 |
| 20260504210502 | 18 | 292 | 4.8 | 11.3 | 0.00 | 0.03 | 0.03 | 52 | 1004.1 |
| 20260504210002 | 18 | 282 | 9.7 | 11.3 | 0.00 | 0.03 | 0.03 | 51 | 1004.1 |
| 20260504205001 | 18 | 270 | 16.1 | 22.5 | 0.00 | 0.03 | 0.03 | 51 | 1004.1 |
| 20260504204502 | 18 | 274 | 9.7 | 16.1 | 0.00 | 0.03 | 0.03 | 53 | 1004.2 |
| 20260504203501 | 17 | 22 | 11.3 | 16.1 | 0.00 | 0.03 | 0.03 | 52 | 1004.1 |
| 20260504203002 | 17 | 292 | 14.5 | 24.1 | 0.00 | 0.03 | 0.03 | 52 | 1004.1 |
| 20260504202502 | 17 | 275 | 14.5 | 22.5 | 0.00 | 0.03 | 0.03 | 52 | 1004.2 |
| 20260504202002 | 17 | 290 | 14.5 | 25.7 | 0.00 | 0.03 | 0.03 | 52 | 1004.2 |
| 20260504201002 | 17 | 280 | 11.3 | 22.5 | 0.00 | 0.03 | 0.03 | 52 | 1004.1 |